Вернуться в каталог

ION SCV-019

АктивенНаукаSSO
NORAD 68435·PAYLOAD·🇮🇹 Italy

Запущен Mar 30, 2026 с Vandenberg Space Force Base

Loading…

Ближайшие Пролёты (ближайшие 24 часа)

TLE

СвежийSource: Space-Track

Эпоха: Sep 14, 2026, 14:19 UTC

1 68435U 26067V   26257.59677996  .00003351  00000-0  15766-3 0  9997
2 68435  97.4649 215.0820 0011446  88.6262 271.6284 15.20201422 25526

Отслеживайте ION SCV-019 в реальном времени с AllMySat

Download on the App Store